Terminal Aerodrome Forecast
Issued by NWS Dodge City, KS

Home | Current Version | Previous Version | Text Only | Print | Product List | Glossary On
Versions: 1 2 3 4 5 6 7 8 9 10 11 12 13 14 15 16 17 18 19 20 21 22 23 24 25 26 27 28 29 30 31 32 33 34 35 36 37 38 39 40 41 42 43 44 45 46 47 48 49 50
065
FTUS43 KDDC 161957 AAC
TAFDDC
TAF AMD
KDDC 161957Z 1620/1718 32010KT 3SM BR BKN005 OVC012
     FM170000 33010KT P6SM VCFG OVC008
     FM170600 30010KT P6SM OVC020
     FM171200 30007KT P6SM BKN030=

USA.gov is the U.S. government's official web portal to all federal, state and local government web resources and services.